Regional Weather Roundup
Issued by NWS

Home | Current Version | Previous Version | Text Only | Print | Product List | Glossary Off
Versions: 1 2 3 4 5 6 7 8 9 10 11 12 13 14 15 16 17 18 19 20 21 22 23 24 25 26 27 28 29 30 31 32 33 34 35 36 37 38 39 40 41 42 43 44 45 46 47 48 49 50

000
ASUS43 KLOT 180208
RWRIL

ILLINOIS REGIONAL WEATHER ROUNDUP
NATIONAL WEATHER SERVICE CHICAGO/ROMEOVILLE IL
900 PM CDT FRI APR 17 2015

NOTE: "FAIR" INDICATES FEW OR NO CLOUDS BELOW 12,000 FEET WITH NO
SIGNIFICANT WEATHER AND/OR OBSTRUCTIONS TO VISIBILITY.

* THESE STATIONS ARE NOT UNDER NWS QUALITY CONTROL. THEY ALSO MAY NOT
  REPORT WEATHER SUCH AS PRECIPITATION OR FOG.

ILZ001-002-007-009-015-016-024-180300-
NORTHWEST ILLINOIS

CITY           SKY/WX    TMP DP  RH WIND       PRES   REMARKS
MOLINE         MOCLDY    63  49  60 CALM      30.00R
STERLING*      PTCLDY    63  48  59 CALM      30.01R
SAVANNA*       PTCLDY    66  49  54 CALM      30.00R
$$

ILZ003-004-008-010-011-017-018-180300-
NORTH CENTRAL ILLINOIS

CITY           SKY/WX    TMP DP  RH WIND       PRES   REMARKS
ROCKFORD       MOCLDY    70  48  45 CALM      30.02R
FREEPORT*      CLOUDY    68  48  48 CALM      30.02R
ROCHELLE*      CLOUDY    65  47  53 CALM      30.01R
DE KALB*       CLOUDY    65  46  50 SW3       30.02R
PERU*          CLEAR     70  46  41 SW3       30.02R
$$

ILZ005-006-012>014-019>023-180300-
NORTHEAST ILLINOIS

CITY           SKY/WX    TMP DP  RH WIND       PRES   REMARKS
CHICAGO-OHARE  PTCLDY    63  46  54 SE7       30.00R
CHICAGO-MIDWAY PTCLDY    69  45  41 E6        30.00R
AURORA         CLEAR     62  49  62 CALM      30.01R
LANSING*       CLEAR     65  45  47 CALM      30.01R
JOLIET*        CLEAR     63  51  65 CALM      30.01R
WAUKEGAN       FAIR      51  44  77 E3        30.00R HAZE
DUPAGE AIRPORT CLEAR     63  49  60 CALM      30.00R
KANKAKEE*      CLEAR     63  51  63 SE3       30.02R
WHEELING       PTCLDY    60  45  57 SE3       30.01R
MORRIS*        CLEAR     66  46  48 CALM      29.99R
ROMEOVILLE*    MOCLDY    67  44  42 S6        30.01R
NORTHERLY ISL    N/A     56  43  61 CALM        N/A
$$

LMZ740>746-180300-
SOUTHERN LAKE MICHIGAN

STATION/POSITION SKY/WX   TEMP    WIND        PRES    VSBY  WAVE
                          AIR SEA DIR/SP/G                  HT/PER
                          (F)     (DEG/KT/KT) (MB)    (MI)  (FT/S)
HARRISON CRIB              58     160/  8/  9   N/A
BURNHAM HARBOR             56      CALM  /  2   N/A
CALUMET HARBOR             61     100/  7/  8   N/A
BURNS HARBOR               60     100/  4/  6 1016.6R
MICHIGAN CITY              70      80/  3/  3   N/A
MICHIGAN CITY 6N           58 47                N/A           0
$$

ILZ025>027-034>036-040-047-049-050-058-095>099-180300-
WEST-CENTRAL ILLINOIS

CITY           SKY/WX    TMP DP  RH WIND       PRES   REMARKS
QUINCY         CLEAR     70  51  51 S5        30.00R
GALESBURG*     CLOUDY    68  53  56 E3        30.01R
MACOMB*        CLOUDY    68  52  56 N3        30.02R
JACKSONVILLE*  CLEAR     71  54  54 S3        30.02R
PITTSFIELD*    CLEAR     70  54  56 S5        30.02R
$$

ILZ028>032-037-038-041>044-048-051>054-059>061-180300-
CENTRAL ILLINOIS

CITY           SKY/WX    TMP DP  RH WIND       PRES   REMARKS
PONTIAC        CLEAR     64  48  56 E3        30.02R
BLOOMINGTON    CLEAR     69  51  52 S5        30.04R
DECATUR        CLEAR     67  53  61 SW3       30.03R
PEORIA         MOCLDY    70  52  52 CALM      30.01R
LACON*         PTCLDY    62  52  68 CALM      30.00R
LINCOLN*       PTCLDY    69  51  52 CALM      29.99R
SPRINGFIELD    PTCLDY    68  53  58 S7        30.02R
TAYLORVILLE    CLEAR     63  54  72 S5        30.02R
$$

ILZ033-039-045-046-055>057-062-063-180300-
EAST-CENTRAL ILLINOIS

CITY           SKY/WX    TMP DP  RH WIND       PRES   REMARKS
CHAMPAIGN      CLEAR     64  49  57 S7        30.03R
DANVILLE*      CLEAR     65  48  53 E3        30.00R
RANTOUL*       CLEAR     67  52  58 SE5       30.03R
MATTOON        CLEAR     67  53  61 S3        30.03R
PARIS*         CLEAR     62  56  81 CALM      30.04R
$$

ILZ079-100>102-180300-
SOUTHWEST ILLINOIS

CITY           SKY/WX    TMP DP  RH WIND       PRES   REMARKS
BELLEVILLE     CLEAR     65  60  82 CALM      30.00R
CAHOKIA*       PTCLDY    67  58  72 E6        30.00R
SPARTA*        PTCLDY    65  58  79 E5        30.02R
$$

ILZ064>066-069>071-074>076-080>082-084>086-088>090-092>094-180300-
SOUTH-CENTRAL ILLINOIS

CITY           SKY/WX    TMP DP  RH WIND       PRES   REMARKS
CARBONDALE     MOCLDY    66  59  78 E3        30.01R
CAIRO*         CLEAR     66  63  89 CALM      30.02R
EFFINGHAM*     CLEAR     63  53  70 CALM      30.05R
MARION         PTCLDY    68  61  77 CALM      30.02R
MT. VERNON     CLEAR     59  54  82 CALM      30.04R
CENTRALIA*     CLEAR     61  56  84 E3        30.03R
SALEM*         CLEAR     67  57  69 CALM      30.04R
METROPOLIS*    MOCLDY    68  63  83 SE3       30.01R
$$

ILZ067-068-072-073-078-083-087-091-180300-
SOUTHEAST ILLINOIS

CITY           SKY/WX    TMP DP  RH WIND       PRES   REMARKS
LAWRENCEVILLE  PTCLDY    68  55  63 CALM      30.03R
FLORA*         PTCLDY    65  56  72 CALM      30.04R
FAIRFIELD*     CLEAR     63  57  80 CALM      30.03R
HARRISBURG*    CLEAR     66  60  82 NE5       30.03R
ROBINSON*      CLEAR     63  55  77 CALM      30.04R
CARMI*         CLEAR     65  56  72 CALM      30.02R
$$

ABBREVIATIONS USED IN REMARKS
   TC - TEMPERATURE IN CELSIUS
  WCI - WIND CHILL INDEX
   HX - HEAT INDEX
  VSB - VISIBILITY
$$




USA.gov is the U.S. government's official web portal to all federal, state and local government web resources and services.